Back to catalog

ERS 2 DEB

AliveSSO
NORAD 31137·DEBRIS·🇪🇺 EU

Launched Apr 21, 1995 from Guiana Space Centre

Loading…

Next Passes (next 24 hours)

TLE

FreshSource: Space-Track

Epoch: Sep 14, 2026, 12:34 UTC

1 31137U 95021D   26257.52420830  .00001297  00000-0  32282-3 0  9997
2 31137  98.6406 276.6519 0004620 139.5537  13.7419 14.53445489185276

Track ERS 2 DEB in real time with AllMySat

Download on the App Store